Time,TemperatureF,DewpointF,PressureIn,WindDirection,WindDirectionDegrees,WindSpeedMPH,WindSpeedGustMPH,Humidity,HourlyPrecipIn,Conditions,Clouds,dailyrainin,SoftwareType,DateUTC
2013-02-05 00:03:00,16.4,14.5,29.97,South,186,4.0,4.0,92,0.00,,,0.00,Wunderground v.1.15,2013-02-05 06:03:00,
2013-02-05 00:08:00,16.8,14.9,29.97,South,187,5.0,6.0,92,0.00,,,0.00,Wunderground v.1.15,2013-02-05 06:08:00,
2013-02-05 00:14:00,17.1,15.2,29.96,South,180,5.0,7.0,92,0.00,,,0.00,Wunderground v.1.15,2013-02-05 06:14:00,
2013-02-05 00:20:00,17.3,15.4,29.96,South,177,8.0,8.0,92,0.00,,,0.00,Wunderground v.1.15,2013-02-05 06:20:00,
2013-02-05 00:25:00,17.5,15.3,29.95,South,169,6.0,7.0,91,0.00,,,0.00,Wunderground v.1.15,2013-02-05 06:25:00,
2013-02-05 00:33:00,17.7,15.5,29.95,SSE,167,6.0,7.0,91,0.00,,,0.00,Wunderground v.1.15,2013-02-05 06:33:00,
2013-02-05 00:42:00,17.8,15.6,29.94,South,181,9.0,9.0,91,0.00,,,0.00,Wunderground v.1.15,2013-02-05 06:42:00,
2013-02-05 00:48:00,17.8,15.6,29.94,South,173,8.0,9.0,91,0.00,,,0.00,Wunderground v.1.15,2013-02-05 06:48:00,
2013-02-05 00:53:00,17.9,15.7,29.95,South,186,6.0,7.0,91,0.00,,,0.00,Wunderground v.1.15,2013-02-05 06:53:00,
2013-02-05 01:02:00,18.1,15.9,29.94,SSW,192,8.0,8.0,91,0.00,,,0.00,Wunderground v.1.15,2013-02-05 07:02:00,
2013-02-05 01:08:00,18.2,16.0,29.94,South,187,7.0,8.0,91,0.00,,,0.00,Wunderground v.1.15,2013-02-05 07:08:00,
2013-02-05 01:23:00,18.4,16.2,29.93,SSW,199,11.0,11.0,91,0.00,,,0.00,Wunderground v.1.15,2013-02-05 07:23:00,
2013-02-05 01:28:00,18.5,16.3,29.94,SSW,199,9.0,11.0,91,0.00,,,0.00,Wunderground v.1.15,2013-02-05 07:28:00,
2013-02-05 01:33:00,18.5,16.3,29.93,SSW,195,9.0,9.0,91,0.00,,,0.00,Wunderground v.1.15,2013-02-05 07:33:00,
2013-02-05 01:39:00,18.6,16.4,29.93,SSW,194,8.0,10.0,91,0.00,,,0.00,Wunderground v.1.15,2013-02-05 07:39:00,
2013-02-05 01:48:00,18.8,16.6,29.93,South,184,7.0,9.0,91,0.00,,,0.00,Wunderground v.1.15,2013-02-05 07:48:00,
2013-02-05 01:53:00,19.0,16.8,29.92,South,191,8.0,9.0,91,0.00,,,0.00,Wunderground v.1.15,2013-02-05 07:53:00,
2013-02-05 01:59:00,19.0,16.6,29.92,South,184,9.0,10.0,90,0.00,,,0.00,Wunderground v.1.15,2013-02-05 07:59:00,
2013-02-05 02:04:00,19.0,16.6,29.92,South,183,10.0,11.0,90,0.00,,,0.00,Wunderground v.1.15,2013-02-05 08:04:00,
2013-02-05 02:09:00,19.0,16.6,29.92,South,186,9.0,10.0,90,0.00,,,0.00,Wunderground v.1.15,2013-02-05 08:09:00,
2013-02-05 02:14:00,19.0,16.6,29.92,South,182,8.0,12.0,90,0.00,,,0.00,Wunderground v.1.15,2013-02-05 08:14:00,
2013-02-05 02:19:00,19.1,16.7,29.92,South,188,11.0,12.0,90,0.00,,,0.00,Wunderground v.1.15,2013-02-05 08:19:00,
2013-02-05 02:24:00,19.1,16.7,29.92,SSW,193,11.0,11.0,90,0.00,,,0.00,Wunderground v.1.15,2013-02-05 08:24:00,
2013-02-05 02:29:00,19.2,17.0,29.92,SSW,192,11.0,13.0,91,0.00,,,0.00,Wunderground v.1.15,2013-02-05 08:29:00,
2013-02-05 02:34:00,19.2,16.7,29.92,SSW,197,11.0,12.0,90,0.00,,,0.00,Wunderground v.1.15,2013-02-05 08:34:00,
2013-02-05 02:39:00,19.3,17.1,29.91,SSW,192,10.0,12.0,91,0.00,,,0.00,Wunderground v.1.15,2013-02-05 08:39:00,
2013-02-05 02:44:00,19.3,16.8,29.91,SSW,192,10.0,12.0,90,0.00,,,0.00,Wunderground v.1.15,2013-02-05 08:44:00,
2013-02-05 02:49:00,19.4,17.2,29.90,South,188,8.0,12.0,91,0.00,,,0.00,Wunderground v.1.15,2013-02-05 08:49:00,
2013-02-05 02:54:00,19.5,17.3,29.90,South,189,9.0,10.0,91,0.00,,,0.00,Wunderground v.1.15,2013-02-05 08:54:00,
2013-02-05 02:59:00,19.6,17.4,29.90,South,184,9.0,10.0,91,0.00,,,0.00,Wunderground v.1.15,2013-02-05 08:59:00,
2013-02-05 03:04:00,19.7,17.5,29.90,SSW,195,10.0,11.0,91,0.00,,,0.00,Wunderground v.1.15,2013-02-05 09:04:00,
2013-02-05 03:09:00,19.9,17.7,29.90,SSW,198,10.0,12.0,91,0.00,,,0.00,Wunderground v.1.15,2013-02-05 09:09:00,
2013-02-05 03:14:00,20.1,17.9,29.89,South,190,8.0,12.0,91,0.00,,,0.00,Wunderground v.1.15,2013-02-05 09:14:00,
2013-02-05 03:19:00,20.2,18.0,29.89,SSW,196,12.0,12.0,91,0.00,,,0.00,Wunderground v.1.15,2013-02-05 09:19:00,
2013-02-05 03:24:00,20.2,18.0,29.88,SSW,194,10.0,14.0,91,0.00,,,0.00,Wunderground v.1.15,2013-02-05 09:24:00,
2013-02-05 03:29:00,20.2,18.0,29.87,South,188,11.0,14.0,91,0.00,,,0.00,Wunderground v.1.15,2013-02-05 09:29:00,
2013-02-05 03:34:00,20.2,18.0,29.88,South,187,10.0,13.0,91,0.00,,,0.00,Wunderground v.1.15,2013-02-05 09:34:00,
2013-02-05 03:39:00,20.4,18.2,29.88,South,186,8.0,13.0,91,0.00,,,0.00,Wunderground v.1.15,2013-02-05 09:39:00,
2013-02-05 03:44:00,20.5,18.3,29.87,South,186,11.0,13.0,91,0.00,,,0.00,Wunderground v.1.15,2013-02-05 09:44:00,
2013-02-05 03:49:00,20.5,18.3,29.87,South,180,8.0,14.0,91,0.00,,,0.00,Wunderground v.1.15,2013-02-05 09:49:00,
2013-02-05 03:54:00,20.6,18.4,29.87,South,185,8.0,11.0,91,0.00,,,0.00,Wunderground v.1.15,2013-02-05 09:54:00,
2013-02-05 03:59:00,20.7,18.5,29.87,South,180,10.0,12.0,91,0.00,,,0.00,Wunderground v.1.15,2013-02-05 09:59:00,
2013-02-05 04:04:00,20.8,18.6,29.87,South,183,8.0,12.0,91,0.00,,,0.00,Wunderground v.1.15,2013-02-05 10:04:00,
2013-02-05 04:09:00,20.9,18.7,29.86,South,179,11.0,11.0,91,0.00,,,0.00,Wunderground v.1.15,2013-02-05 10:09:00,
2013-02-05 04:14:00,20.9,18.4,29.86,South,186,10.0,14.0,90,0.00,,,0.00,Wunderground v.1.15,2013-02-05 10:14:00,
2013-02-05 04:19:00,20.9,18.7,29.86,South,183,9.0,15.0,91,0.00,,,0.00,Wunderground v.1.15,2013-02-05 10:19:00,
2013-02-05 04:24:00,20.9,18.4,29.86,SSW,192,9.0,12.0,90,0.00,,,0.00,Wunderground v.1.15,2013-02-05 10:24:00,
2013-02-05 04:29:00,20.9,18.4,29.86,SSW,194,7.0,12.0,90,0.00,,,0.00,Wunderground v.1.15,2013-02-05 10:29:00,
2013-02-05 04:34:00,21.0,18.5,29.86,South,191,7.0,10.0,90,0.00,,,0.00,Wunderground v.1.15,2013-02-05 10:34:00,
2013-02-05 04:39:00,21.1,18.6,29.87,South,191,7.0,11.0,90,0.00,,,0.00,Wunderground v.1.15,2013-02-05 10:39:00,
2013-02-05 04:44:00,21.1,18.6,29.87,South,191,10.0,11.0,90,0.00,,,0.00,Wunderground v.1.15,2013-02-05 10:44:00,
2013-02-05 04:49:00,21.1,18.6,29.86,South,184,9.0,11.0,90,0.00,,,0.00,Wunderground v.1.15,2013-02-05 10:49:00,
2013-02-05 04:55:00,20.9,18.4,29.86,South,184,10.0,10.0,90,0.00,,,0.00,Wunderground v.1.15,2013-02-05 10:55:00,
2013-02-05 05:00:00,20.8,18.3,29.86,South,188,9.0,9.0,90,0.00,,,0.00,Wunderground v.1.15,2013-02-05 11:00:00,
2013-02-05 05:05:00,20.7,18.2,29.85,South,186,9.0,11.0,90,0.00,,,0.00,Wunderground v.1.15,2013-02-05 11:05:00,
2013-02-05 05:10:00,20.7,18.2,29.85,SSW,194,13.0,13.0,90,0.00,,,0.00,Wunderground v.1.15,2013-02-05 11:10:00,
2013-02-05 05:15:00,20.7,18.2,29.85,South,190,12.0,13.0,90,0.00,,,0.00,Wunderground v.1.15,2013-02-05 11:15:00,
2013-02-05 05:20:00,20.7,18.2,29.85,South,190,10.0,13.0,90,0.00,,,0.00,Wunderground v.1.15,2013-02-05 11:20:00,
2013-02-05 05:25:00,20.6,18.1,29.85,South,188,7.0,12.0,90,0.00,,,0.00,Wunderground v.1.15,2013-02-05 11:25:00,
2013-02-05 05:30:00,20.6,18.4,29.85,South,187,8.0,12.0,91,0.00,,,0.00,Wunderground v.1.15,2013-02-05 11:30:00,
2013-02-05 05:35:00,20.7,18.5,29.85,South,186,8.0,11.0,91,0.00,,,0.00,Wunderground v.1.15,2013-02-05 11:35:00,
2013-02-05 05:40:00,20.6,18.1,29.84,South,184,8.0,11.0,90,0.00,,,0.00,Wunderground v.1.15,2013-02-05 11:40:00,
2013-02-05 05:45:00,20.6,18.1,29.84,South,188,10.0,13.0,90,0.00,,,0.00,Wunderground v.1.15,2013-02-05 11:45:00,
2013-02-05 05:50:00,20.5,18.0,29.84,South,190,9.0,14.0,90,0.00,,,0.00,Wunderground v.1.15,2013-02-05 11:50:00,
2013-02-05 05:55:00,20.4,17.9,29.83,South,189,10.0,14.0,90,0.00,,,0.00,Wunderground v.1.15,2013-02-05 11:55:00,
2013-02-05 06:00:00,20.2,17.7,29.84,SSW,195,10.0,11.0,90,0.00,,,0.00,Wunderground v.1.15,2013-02-05 12:00:00,
2013-02-05 06:05:00,19.9,17.4,29.84,SSW,197,8.0,10.0,90,0.00,,,0.00,Wunderground v.1.15,2013-02-05 12:05:00,
2013-02-05 06:10:00,19.8,17.3,29.85,SSW,196,7.0,8.0,90,0.00,,,0.00,Wunderground v.1.15,2013-02-05 12:10:00,
2013-02-05 06:15:00,19.7,17.2,29.84,South,190,8.0,10.0,90,0.00,,,0.00,Wunderground v.1.15,2013-02-05 12:15:00,
2013-02-05 06:20:00,19.5,17.0,29.84,South,188,8.0,11.0,90,0.00,,,0.00,Wunderground v.1.15,2013-02-05 12:20:00,
2013-02-05 06:25:00,19.4,17.2,29.85,South,191,5.0,9.0,91,0.00,,,0.00,Wunderground v.1.15,2013-02-05 12:25:00,
2013-02-05 06:30:00,19.3,16.8,29.84,South,187,6.0,10.0,90,0.00,,,0.00,Wunderground v.1.15,2013-02-05 12:30:00,
2013-02-05 06:35:00,19.2,17.0,29.84,South,184,6.0,8.0,91,0.00,,,0.00,Wunderground v.1.15,2013-02-05 12:35:00,
2013-02-05 06:40:00,19.1,16.9,29.84,South,177,8.0,9.0,91,0.00,,,0.00,Wunderground v.1.15,2013-02-05 12:40:00,
2013-02-05 06:45:00,19.1,16.9,29.84,South,188,7.0,8.0,91,0.00,,,0.00,Wunderground v.1.15,2013-02-05 12:45:00,
2013-02-05 06:50:00,18.9,16.7,29.84,South,190,9.0,9.0,91,0.00,,,0.00,Wunderground v.1.15,2013-02-05 12:50:00,
2013-02-05 06:55:00,18.8,16.6,29.84,South,190,8.0,9.0,91,0.00,,,0.00,Wunderground v.1.15,2013-02-05 12:55:00,
2013-02-05 07:02:00,18.6,16.4,29.84,SSW,198,7.0,7.0,91,0.00,,,0.00,Wunderground v.1.15,2013-02-05 13:02:00,
2013-02-05 07:08:00,18.5,16.3,29.84,SSW,197,7.0,8.0,91,0.00,,,0.00,Wunderground v.1.15,2013-02-05 13:08:00,
2013-02-05 07:13:00,18.4,16.2,29.84,SSW,194,6.0,6.0,91,0.00,,,0.00,Wunderground v.1.15,2013-02-05 13:13:00,
2013-02-05 07:18:00,18.3,16.1,29.84,South,189,4.0,7.0,91,0.00,,,0.00,Wunderground v.1.15,2013-02-05 13:18:00,
2013-02-05 07:23:00,18.1,15.9,29.84,South,188,4.0,6.0,91,0.00,,,0.00,Wunderground v.1.15,2013-02-05 13:23:00,
2013-02-05 07:28:00,17.9,15.7,29.84,South,188,5.0,6.0,91,0.00,,,0.00,Wunderground v.1.15,2013-02-05 13:28:00,
2013-02-05 07:33:00,17.8,15.6,29.84,South,191,7.0,8.0,91,0.00,,,0.00,Wunderground v.1.15,2013-02-05 13:33:00,
2013-02-05 07:38:00,17.9,16.0,29.84,SSW,194,6.0,8.0,92,0.00,,,0.00,Wunderground v.1.15,2013-02-05 13:38:00,
2013-02-05 07:44:00,18.1,16.2,29.84,SSW,199,10.0,10.0,92,0.00,,,0.00,Wunderground v.1.15,2013-02-05 13:44:00,
2013-02-05 07:49:00,18.4,16.5,29.84,SSW,199,7.0,10.0,92,0.00,,,0.00,Wunderground v.1.15,2013-02-05 13:49:00,
2013-02-05 07:54:00,18.6,16.7,29.84,SSW,201,8.0,10.0,92,0.00,,,0.00,Wunderground v.1.15,2013-02-05 13:54:00,
2013-02-05 07:59:00,18.8,16.9,29.83,SSW,199,8.0,11.0,92,0.00,,,0.00,Wunderground v.1.15,2013-02-05 13:59:00,
2013-02-05 08:04:00,19.0,17.1,29.83,SSW,202,8.0,10.0,92,0.00,,,0.00,Wunderground v.1.15,2013-02-05 14:04:00,
2013-02-05 08:09:00,19.3,17.4,29.83,SSW,205,8.0,10.0,92,0.00,,,0.00,Wunderground v.1.15,2013-02-05 14:09:00,
2013-02-05 08:14:00,19.5,17.6,29.83,SSW,200,10.0,11.0,92,0.00,,,0.00,Wunderground v.1.15,2013-02-05 14:14:00,
2013-02-05 08:19:00,19.8,17.9,29.83,SSW,209,9.0,11.0,92,0.00,,,0.00,Wunderground v.1.15,2013-02-05 14:19:00,
2013-02-05 08:24:00,20.2,18.2,29.84,SW,215,9.0,10.0,92,0.00,,,0.00,Wunderground v.1.15,2013-02-05 14:24:00,
2013-02-05 08:29:00,20.6,18.6,29.83,SSW,213,10.0,12.0,92,0.00,,,0.00,Wunderground v.1.15,2013-02-05 14:29:00,
2013-02-05 08:34:00,21.3,19.3,29.83,SSW,212,12.0,12.0,92,0.00,,,0.00,Wunderground v.1.15,2013-02-05 14:34:00,
2013-02-05 08:39:00,22.0,20.0,29.83,SW,214,13.0,14.0,92,0.00,,,0.00,Wunderground v.1.15,2013-02-05 14:39:00,
2013-02-05 08:44:00,22.5,20.3,29.84,SW,223,11.0,13.0,91,0.00,,,0.00,Wunderground v.1.15,2013-02-05 14:44:00,
2013-02-05 08:49:00,22.8,20.6,29.84,SW,222,12.0,14.0,91,0.00,,,0.00,Wunderground v.1.15,2013-02-05 14:49:00,
2013-02-05 08:54:00,23.1,20.9,29.83,SW,224,12.0,14.0,91,0.00,,,0.00,Wunderground v.1.15,2013-02-05 14:54:00,
2013-02-05 08:59:00,23.4,20.9,29.83,SW,220,15.0,15.0,90,0.00,,,0.00,Wunderground v.1.15,2013-02-05 14:59:00,
2013-02-05 09:04:00,23.6,21.1,29.83,SW,229,10.0,10.0,90,0.00,,,0.00,Wunderground v.1.15,2013-02-05 15:04:00,
2013-02-05 09:10:00,24.0,21.8,29.83,SW,221,11.0,11.0,91,0.00,,,0.00,Wunderground v.1.15,2013-02-05 15:10:00,
2013-02-05 09:15:00,24.1,21.6,29.83,SW,232,10.0,13.0,90,0.00,,,0.00,Wunderground v.1.15,2013-02-05 15:15:00,
2013-02-05 09:20:00,24.3,21.8,29.83,SW,227,10.0,13.0,90,0.00,,,0.00,Wunderground v.1.15,2013-02-05 15:20:00,
2013-02-05 09:25:00,24.5,22.0,29.84,WSW,246,10.0,12.0,90,0.00,,,0.00,Wunderground v.1.15,2013-02-05 15:25:00,
2013-02-05 09:30:00,24.5,22.0,29.84,WSW,245,8.0,14.0,90,0.00,,,0.00,Wunderground v.1.15,2013-02-05 15:30:00,
2013-02-05 09:35:00,24.7,22.2,29.84,WSW,237,11.0,12.0,90,0.00,,,0.00,Wunderground v.1.15,2013-02-05 15:35:00,
2013-02-05 09:40:00,25.2,22.4,29.83,WSW,246,10.0,14.0,89,0.00,,,0.00,Wunderground v.1.15,2013-02-05 15:40:00,
2013-02-05 09:45:00,25.4,22.6,29.83,WSW,240,11.0,17.0,89,0.00,,,0.00,Wunderground v.1.15,2013-02-05 15:45:00,
2013-02-05 09:50:00,25.8,23.0,29.83,WSW,246,7.0,17.0,89,0.00,,,0.00,Wunderground v.1.15,2013-02-05 15:50:00,
2013-02-05 09:55:00,26.3,23.5,29.83,WSW,250,8.0,13.0,89,0.00,,,0.00,Wunderground v.1.15,2013-02-05 15:55:00,
2013-02-05 10:00:00,26.6,23.8,29.83,WSW,258,12.0,14.0,89,0.00,,,0.00,Wunderground v.1.15,2013-02-05 16:00:00,
2013-02-05 10:08:00,27.2,24.1,29.84,WSW,242,10.0,13.0,88,0.00,,,0.00,Wunderground v.1.15,2013-02-05 16:08:00,
2013-02-05 10:13:00,27.4,24.3,29.84,WSW,250,11.0,13.0,88,0.00,,,0.00,Wunderground v.1.15,2013-02-05 16:13:00,
2013-02-05 10:18:00,27.6,24.8,29.84,WSW,255,10.0,13.0,89,0.00,,,0.00,Wunderground v.1.15,2013-02-05 16:18:00,
2013-02-05 10:23:00,27.9,25.1,29.84,WSW,256,7.0,11.0,89,0.00,,,0.00,Wunderground v.1.15,2013-02-05 16:23:00,
2013-02-05 10:28:00,28.2,25.1,29.84,WSW,257,14.0,16.0,88,0.00,,,0.00,Wunderground v.1.15,2013-02-05 16:28:00,
2013-02-05 10:33:00,28.6,25.5,29.84,WSW,255,11.0,14.0,88,0.00,,,0.00,Wunderground v.1.15,2013-02-05 16:33:00,
2013-02-05 10:38:00,29.0,25.9,29.85,West,271,13.0,15.0,88,0.00,,,0.00,Wunderground v.1.15,2013-02-05 16:38:00,
2013-02-05 10:43:00,29.3,26.2,29.86,West,275,15.0,15.0,88,0.00,,,0.00,Wunderground v.1.15,2013-02-05 16:43:00,
2013-02-05 10:48:00,29.5,26.1,29.86,WNW,284,11.0,15.0,87,0.00,,,0.00,Wunderground v.1.15,2013-02-05 16:48:00,
2013-02-05 10:55:00,29.7,26.3,29.86,West,281,15.0,15.0,87,0.00,,,0.00,Wunderground v.1.15,2013-02-05 16:55:00,
2013-02-05 11:00:00,30.1,26.7,29.86,West,277,8.0,12.0,87,0.00,,,0.00,Wunderground v.1.15,2013-02-05 17:00:00,
2013-02-05 11:08:00,30.8,27.7,29.86,West,275,10.0,13.0,88,0.00,,,0.00,Wunderground v.1.15,2013-02-05 17:08:00,
2013-02-05 11:22:00,31.9,28.5,29.87,WNW,291,19.0,19.0,87,0.00,,,0.00,Wunderground v.1.15,2013-02-05 17:22:00,
2013-02-05 11:27:00,31.9,28.8,29.87,WNW,298,18.0,20.0,88,0.00,,,0.00,Wunderground v.1.15,2013-02-05 17:27:00,
2013-02-05 11:32:00,31.9,28.8,29.87,NW,310,18.0,18.0,88,0.00,,,0.00,Wunderground v.1.15,2013-02-05 17:32:00,
2013-02-05 11:37:00,32.1,29.2,29.87,WNW,302,17.0,19.0,89,0.00,,,0.00,Wunderground v.1.15,2013-02-05 17:37:00,
2013-02-05 11:49:00,32.4,29.5,29.87,NW,313,14.0,21.0,89,0.00,,,0.00,Wunderground v.1.15,2013-02-05 17:49:00,
2013-02-05 11:53:00,32.6,29.7,29.87,WNW,303,14.0,20.0,89,0.00,,,0.00,Wunderground v.1.15,2013-02-05 17:53:00,
2013-02-05 11:59:00,32.8,29.9,29.87,WNW,292,16.0,20.0,89,0.00,,,0.00,Wunderground v.1.15,2013-02-05 17:59:00,
2013-02-05 12:09:00,33.2,30.6,29.88,WNW,302,16.0,17.0,90,0.00,,,0.00,Wunderground v.1.15,2013-02-05 18:09:00,
2013-02-05 12:19:00,33.8,30.9,29.88,NW,316,18.0,19.0,89,0.00,,,0.00,Wunderground v.1.15,2013-02-05 18:19:00,
2013-02-05 12:29:00,34.0,31.1,29.88,NW,312,16.0,17.0,89,0.00,,,0.00,Wunderground v.1.15,2013-02-05 18:29:00,
2013-02-05 12:38:00,34.1,31.2,29.89,NW,317,13.0,18.0,89,0.00,,,0.00,Wunderground v.1.15,2013-02-05 18:38:00,
2013-02-05 12:43:00,34.1,31.2,29.89,NW,317,13.0,15.0,89,0.00,,,0.00,Wunderground v.1.15,2013-02-05 18:43:00,
2013-02-05 12:48:00,34.2,31.3,29.89,NW,325,14.0,18.0,89,0.00,,,0.00,Wunderground v.1.15,2013-02-05 18:48:00,
2013-02-05 12:54:00,34.4,31.5,29.90,NW,314,16.0,17.0,89,0.00,,,0.00,Wunderground v.1.15,2013-02-05 18:54:00,
2013-02-05 12:59:00,34.5,31.6,29.90,NW,313,14.0,20.0,89,0.00,,,0.00,Wunderground v.1.15,2013-02-05 18:59:00,
2013-02-05 13:10:00,34.8,31.6,29.90,NW,309,14.0,15.0,88,0.00,,,0.00,Wunderground v.1.15,2013-02-05 19:10:00,
2013-02-05 13:20:00,34.9,31.7,29.90,NW,313,14.0,16.0,88,0.00,,,0.00,Wunderground v.1.15,2013-02-05 19:20:00,
2013-02-05 13:25:00,35.0,31.8,29.90,WNW,298,12.0,18.0,88,0.00,,,0.00,Wunderground v.1.15,2013-02-05 19:25:00,
2013-02-05 13:30:00,35.2,32.0,29.90,WNW,300,13.0,18.0,88,0.00,,,0.00,Wunderground v.1.15,2013-02-05 19:30:00,
2013-02-05 13:36:00,35.3,32.1,29.90,WNW,302,15.0,15.0,88,0.00,,,0.00,Wunderground v.1.15,2013-02-05 19:36:00,
2013-02-05 13:41:00,35.5,32.0,29.90,WNW,296,11.0,18.0,87,0.00,,,0.00,Wunderground v.1.15,2013-02-05 19:41:00,
2013-02-05 13:46:00,35.6,32.1,29.90,NW,315,14.0,16.0,87,0.00,,,0.00,Wunderground v.1.15,2013-02-05 19:46:00,
2013-02-05 14:03:00,36.0,32.2,29.91,NW,305,10.0,10.0,86,0.00,,,0.00,Wunderground v.1.15,2013-02-05 20:03:00,
2013-02-05 14:08:00,36.2,32.4,29.91,NW,310,15.0,17.0,86,0.00,,,0.00,Wunderground v.1.15,2013-02-05 20:08:00,
2013-02-05 14:13:00,36.2,32.4,29.91,NW,311,15.0,15.0,86,0.00,,,0.00,Wunderground v.1.15,2013-02-05 20:13:00,
2013-02-05 14:18:00,36.4,32.3,29.91,WNW,303,18.0,18.0,85,0.00,,,0.00,Wunderground v.1.15,2013-02-05 20:18:00,
2013-02-05 14:23:00,36.5,32.4,29.91,NW,315,16.0,16.0,85,0.00,,,0.00,Wunderground v.1.15,2013-02-05 20:23:00,
2013-02-05 14:28:00,36.5,32.7,29.92,NW,318,13.0,16.0,86,0.00,,,0.00,Wunderground v.1.15,2013-02-05 20:28:00,
2013-02-05 14:42:00,36.4,32.6,29.92,NW,315,15.0,15.0,86,0.00,,,0.00,Wunderground v.1.15,2013-02-05 20:42:00,
2013-02-05 14:47:00,36.4,32.3,29.93,NW,317,15.0,18.0,85,0.00,,,0.00,Wunderground v.1.15,2013-02-05 20:47:00,
2013-02-05 15:00:00,36.4,32.0,29.94,NW,319,15.0,16.0,84,0.00,,,0.00,Wunderground v.1.15,2013-02-05 21:00:00,
2013-02-05 15:05:00,36.2,31.8,29.94,NW,319,17.0,18.0,84,0.00,,,0.00,Wunderground v.1.15,2013-02-05 21:05:00,
2013-02-05 15:10:00,36.1,31.7,29.95,NW,310,15.0,20.0,84,0.00,,,0.00,Wunderground v.1.15,2013-02-05 21:10:00,
2013-02-05 15:15:00,36.0,31.6,29.95,NW,317,11.0,18.0,84,0.00,,,0.00,Wunderground v.1.15,2013-02-05 21:15:00,
2013-02-05 15:20:00,35.9,31.8,29.95,NW,315,11.0,18.0,85,0.00,,,0.00,Wunderground v.1.15,2013-02-05 21:20:00,
2013-02-05 15:33:00,35.8,31.7,29.96,NW,317,18.0,18.0,85,0.00,,,0.00,Wunderground v.1.15,2013-02-05 21:33:00,
2013-02-05 15:38:00,35.8,31.4,29.96,NW,315,17.0,24.0,84,0.00,,,0.00,Wunderground v.1.15,2013-02-05 21:38:00,
2013-02-05 15:44:00,35.7,31.0,29.96,NW,317,13.0,18.0,83,0.00,,,0.00,Wunderground v.1.15,2013-02-05 21:44:00,
2013-02-05 15:49:00,35.6,30.9,29.96,NW,317,18.0,21.0,83,0.00,,,0.00,Wunderground v.1.15,2013-02-05 21:49:00,
2013-02-05 15:54:00,35.6,30.9,29.97,NW,310,16.0,19.0,83,0.00,,,0.00,Wunderground v.1.15,2013-02-05 21:54:00,
2013-02-05 15:59:00,35.6,30.9,29.97,NW,315,15.0,22.0,83,0.00,,,0.00,Wunderground v.1.15,2013-02-05 21:59:00,
2013-02-05 16:10:00,35.4,30.8,29.97,NNW,329,16.0,18.0,83,0.00,,,0.00,Wunderground v.1.15,2013-02-05 22:10:00,
2013-02-05 16:15:00,35.3,30.7,29.97,NW,319,18.0,20.0,83,0.00,,,0.00,Wunderground v.1.15,2013-02-05 22:15:00,
2013-02-05 16:20:00,35.3,30.7,29.97,NW,311,17.0,23.0,83,0.00,,,0.00,Wunderground v.1.15,2013-02-05 22:20:00,
2013-02-05 16:25:00,35.4,30.5,29.98,NW,308,17.0,24.0,82,0.00,,,0.00,Wunderground v.1.15,2013-02-05 22:25:00,
2013-02-05 16:30:00,35.5,30.5,29.98,NW,311,14.0,24.0,82,0.00,,,0.00,Wunderground v.1.15,2013-02-05 22:30:00,
2013-02-05 16:35:00,35.4,30.8,29.99,NW,322,17.0,21.0,83,0.00,,,0.00,Wunderground v.1.15,2013-02-05 22:35:00,
2013-02-05 16:40:00,35.3,30.7,29.99,NW,324,17.0,21.0,83,0.00,,,0.00,Wunderground v.1.15,2013-02-05 22:40:00,
2013-02-05 16:45:00,35.2,30.9,29.99,NW,319,13.0,16.0,84,0.00,,,0.00,Wunderground v.1.15,2013-02-05 22:45:00,
2013-02-05 16:50:00,35.1,30.8,29.99,NW,321,15.0,18.0,84,0.00,,,0.00,Wunderground v.1.15,2013-02-05 22:50:00,
2013-02-05 16:55:00,35.2,30.9,30.00,NW,324,12.0,16.0,84,0.00,,,0.00,Wunderground v.1.15,2013-02-05 22:55:00,
2013-02-05 17:00:00,35.2,30.9,30.00,NW,321,17.0,17.0,84,0.00,,,0.00,Wunderground v.1.15,2013-02-05 23:00:00,
2013-02-05 17:05:00,35.1,30.8,30.00,NW,325,12.0,15.0,84,0.00,,,0.00,Wunderground v.1.15,2013-02-05 23:05:00,
2013-02-05 17:10:00,35.0,30.9,30.00,NW,326,13.0,15.0,85,0.00,,,0.00,Wunderground v.1.15,2013-02-05 23:10:00,
2013-02-05 17:15:00,35.0,30.9,30.01,NW,316,11.0,14.0,85,0.00,,,0.00,Wunderground v.1.15,2013-02-05 23:15:00,
2013-02-05 17:20:00,34.9,30.8,30.01,NW,315,9.0,14.0,85,0.00,,,0.00,Wunderground v.1.15,2013-02-05 23:20:00,
2013-02-05 17:25:00,34.7,30.9,30.01,NW,315,9.0,12.0,86,0.00,,,0.00,Wunderground v.1.15,2013-02-05 23:25:00,
2013-02-05 17:30:00,34.6,30.6,30.01,NW,323,13.0,23.0,85,0.00,,,0.00,Wunderground v.1.15,2013-02-05 23:30:00,
2013-02-05 17:35:00,34.6,30.3,30.01,NW,309,17.0,21.0,84,0.00,,,0.00,Wunderground v.1.15,2013-02-05 23:35:00,
2013-02-05 17:40:00,34.6,30.0,30.01,NNW,329,16.0,21.0,83,0.00,,,0.00,Wunderground v.1.15,2013-02-05 23:40:00,
2013-02-05 17:45:00,34.4,29.8,30.01,NNW,329,14.0,18.0,83,0.00,,,0.00,Wunderground v.1.15,2013-02-05 23:45:00,
2013-02-05 17:50:00,34.2,29.9,30.01,NW,325,9.0,18.0,84,0.00,,,0.00,Wunderground v.1.15,2013-02-05 23:50:00,
2013-02-05 17:55:00,33.9,30.2,30.02,NNW,329,10.0,12.0,86,0.00,,,0.00,Wunderground v.1.15,2013-02-05 23:55:00,
2013-02-05 18:00:00,33.9,30.2,30.02,NNW,327,8.0,11.0,86,0.00,,,0.00,Wunderground v.1.15,2013-02-06 00:00:00,
2013-02-05 18:06:00,33.8,30.1,30.02,NNW,332,10.0,12.0,86,0.00,,,0.00,Wunderground v.1.15,2013-02-06 00:06:00,
2013-02-05 18:12:00,33.6,30.1,30.02,NNW,329,12.0,12.0,87,0.00,,,0.00,Wunderground v.1.15,2013-02-06 00:12:00,
2013-02-05 18:17:00,33.5,29.8,30.02,NNW,331,9.0,12.0,86,0.00,,,0.00,Wunderground v.1.15,2013-02-06 00:17:00,
2013-02-05 18:22:00,33.4,29.9,30.03,NNW,336,8.0,10.0,87,0.00,,,0.00,Wunderground v.1.15,2013-02-06 00:22:00,
2013-02-05 18:27:00,33.2,29.8,30.03,NNW,337,8.0,10.0,87,0.00,,,0.00,Wunderground v.1.15,2013-02-06 00:27:00,
2013-02-05 18:33:00,33.0,29.6,30.03,NNW,344,8.0,8.0,87,0.00,,,0.00,Wunderground v.1.15,2013-02-06 00:33:00,
2013-02-05 18:38:00,32.9,29.5,30.03,NNW,333,7.0,9.0,87,0.00,,,0.00,Wunderground v.1.15,2013-02-06 00:38:00,
2013-02-05 18:43:00,32.7,29.3,30.03,NNW,329,9.0,10.0,87,0.00,,,0.00,Wunderground v.1.15,2013-02-06 00:43:00,
2013-02-05 18:48:00,32.5,29.1,30.04,NNW,328,6.0,10.0,87,0.00,,,0.00,Wunderground v.1.15,2013-02-06 00:48:00,
2013-02-05 18:53:00,32.3,29.1,30.04,NNW,328,9.0,9.0,88,0.00,,,0.00,Wunderground v.1.15,2013-02-06 00:53:00,
2013-02-05 18:59:00,32.3,29.1,30.04,NNW,328,7.0,9.0,88,0.00,,,0.00,Wunderground v.1.15,2013-02-06 00:59:00,
2013-02-05 19:04:00,32.1,28.9,30.04,NW,319,8.0,8.0,88,0.00,,,0.00,Wunderground v.1.15,2013-02-06 01:04:00,
2013-02-05 19:09:00,32.0,29.1,30.04,NW,317,9.0,9.0,89,0.00,,,0.00,Wunderground v.1.15,2013-02-06 01:09:00,
2013-02-05 19:14:00,32.0,29.1,30.04,NW,312,9.0,9.0,89,0.00,,,0.00,Wunderground v.1.15,2013-02-06 01:14:00,
2013-02-05 19:19:00,31.9,29.0,30.04,NW,322,9.0,11.0,89,0.00,,,0.00,Wunderground v.1.15,2013-02-06 01:19:00,
2013-02-05 19:24:00,32.2,29.3,30.04,NW,320,12.0,17.0,89,0.00,,,0.00,Wunderground v.1.15,2013-02-06 01:24:00,
2013-02-05 19:29:00,32.2,29.0,30.05,NW,323,9.0,17.0,88,0.00,,,0.00,Wunderground v.1.15,2013-02-06 01:29:00,
2013-02-05 19:34:00,32.1,28.9,30.05,NW,318,11.0,14.0,88,0.00,,,0.00,Wunderground v.1.15,2013-02-06 01:34:00,
2013-02-05 19:39:00,32.0,28.8,30.05,NW,321,9.0,14.0,88,0.00,,,0.00,Wunderground v.1.15,2013-02-06 01:39:00,
2013-02-05 19:45:00,31.7,28.6,30.05,NW,321,9.0,11.0,88,0.00,,,0.00,Wunderground v.1.15,2013-02-06 01:45:00,
2013-02-05 19:49:00,31.5,28.4,30.05,NW,321,8.0,12.0,88,0.00,,,0.00,Wunderground v.1.15,2013-02-06 01:49:00,
2013-02-05 19:55:00,31.2,28.3,30.05,NW,321,8.0,10.0,89,0.00,,,0.00,Wunderground v.1.15,2013-02-06 01:55:00,
2013-02-05 20:00:00,31.0,28.1,30.05,NW,324,10.0,10.0,89,0.00,,,0.00,Wunderground v.1.15,2013-02-06 02:00:00,
2013-02-05 20:05:00,30.9,28.3,30.06,NW,316,9.0,9.0,90,0.00,,,0.00,Wunderground v.1.15,2013-02-06 02:05:00,
2013-02-05 20:10:00,30.7,28.1,30.06,NW,321,7.0,11.0,90,0.00,,,0.00,Wunderground v.1.15,2013-02-06 02:10:00,
2013-02-05 20:15:00,30.6,28.0,30.06,NW,309,7.0,9.0,90,0.00,,,0.00,Wunderground v.1.15,2013-02-06 02:15:00,
2013-02-05 20:20:00,30.3,27.7,30.07,NW,308,6.0,9.0,90,0.00,,,0.00,Wunderground v.1.15,2013-02-06 02:20:00,
2013-02-05 20:25:00,29.7,27.1,30.07,NW,307,5.0,7.0,90,0.00,,,0.00,Wunderground v.1.15,2013-02-06 02:25:00,
2013-02-05 20:30:00,29.4,26.8,30.07,NW,306,6.0,7.0,90,0.00,,,0.00,Wunderground v.1.15,2013-02-06 02:30:00,
2013-02-05 20:35:00,29.2,26.9,30.07,NW,311,7.0,10.0,91,0.00,,,0.00,Wunderground v.1.15,2013-02-06 02:35:00,
2013-02-05 20:40:00,29.4,27.4,30.08,NW,323,8.0,10.0,92,0.00,,,0.00,Wunderground v.1.15,2013-02-06 02:40:00,
2013-02-05 20:45:00,29.3,27.0,30.08,NW,313,6.0,9.0,91,0.00,,,0.00,Wunderground v.1.15,2013-02-06 02:45:00,
2013-02-05 20:50:00,29.3,27.0,30.08,NW,319,9.0,9.0,91,0.00,,,0.00,Wunderground v.1.15,2013-02-06 02:50:00,
2013-02-05 20:55:00,29.2,26.9,30.08,NNW,329,10.0,12.0,91,0.00,,,0.00,Wunderground v.1.15,2013-02-06 02:55:00,
2013-02-05 21:00:00,29.1,26.3,30.08,NNW,329,9.0,10.0,89,0.00,,,0.00,Wunderground v.1.15,2013-02-06 03:00:00,
2013-02-05 21:05:00,28.9,25.8,30.09,NW,323,9.0,11.0,88,0.00,,,0.00,Wunderground v.1.15,2013-02-06 03:05:00,
2013-02-05 21:10:00,28.7,25.6,30.09,NNW,332,8.0,10.0,88,0.00,,,0.00,Wunderground v.1.15,2013-02-06 03:10:00,
2013-02-05 21:15:00,28.4,25.3,30.09,NNW,333,7.0,9.0,88,0.00,,,0.00,Wunderground v.1.15,2013-02-06 03:15:00,
2013-02-05 21:20:00,28.1,25.3,30.09,NNW,331,6.0,9.0,89,0.00,,,0.00,Wunderground v.1.15,2013-02-06 03:20:00,
2013-02-05 21:25:00,27.9,25.1,30.10,NNW,331,6.0,7.0,89,0.00,,,0.00,Wunderground v.1.15,2013-02-06 03:25:00,
2013-02-05 21:30:00,27.6,24.8,30.10,NNW,331,7.0,7.0,89,0.00,,,0.00,Wunderground v.1.15,2013-02-06 03:30:00,
2013-02-05 21:35:00,27.4,24.6,30.10,NNW,331,6.0,8.0,89,0.00,,,0.00,Wunderground v.1.15,2013-02-06 03:35:00,
2013-02-05 21:40:00,27.1,24.3,30.11,NNW,331,6.0,8.0,89,0.00,,,0.00,Wunderground v.1.15,2013-02-06 03:40:00,
2013-02-05 21:45:00,27.0,24.5,30.11,NNW,333,7.0,8.0,90,0.00,,,0.00,Wunderground v.1.15,2013-02-06 03:45:00,
2013-02-05 21:50:00,26.9,24.4,30.11,NNW,333,7.0,8.0,90,0.00,,,0.00,Wunderground v.1.15,2013-02-06 03:50:00,
2013-02-05 21:55:00,26.8,24.3,30.10,NNW,335,7.0,9.0,90,0.00,,,0.00,Wunderground v.1.15,2013-02-06 03:55:00,
2013-02-05 22:01:00,26.6,24.1,30.11,NNW,329,6.0,7.0,90,0.00,,,0.00,Wunderground v.1.15,2013-02-06 04:01:00,
2013-02-05 22:06:00,26.3,23.8,30.11,NW,320,8.0,9.0,90,0.00,,,0.00,Wunderground v.1.15,2013-02-06 04:06:00,
2013-02-05 22:11:00,26.1,23.6,30.11,NNW,327,7.0,9.0,90,0.00,,,0.00,Wunderground v.1.15,2013-02-06 04:11:00,
2013-02-05 22:16:00,26.1,23.3,30.11,NNW,329,7.0,9.0,89,0.00,,,0.00,Wunderground v.1.15,2013-02-06 04:16:00,
2013-02-05 22:21:00,25.9,23.1,30.11,NNW,329,5.0,9.0,89,0.00,,,0.00,Wunderground v.1.15,2013-02-06 04:21:00,
2013-02-05 22:26:00,25.7,22.9,30.11,NNW,329,5.0,7.0,89,0.00,,,0.00,Wunderground v.1.15,2013-02-06 04:26:00,
2013-02-05 22:31:00,25.4,22.6,30.12,NNW,329,5.0,7.0,89,0.00,,,0.00,Wunderground v.1.15,2013-02-06 04:31:00,
2013-02-05 22:36:00,25.2,22.7,30.12,NNW,328,6.0,6.0,90,0.00,,,0.00,Wunderground v.1.15,2013-02-06 04:36:00,
2013-02-05 22:43:00,24.9,22.4,30.12,NW,321,4.0,5.0,90,0.00,,,0.00,Wunderground v.1.15,2013-02-06 04:43:00,
2013-02-05 22:48:00,24.7,22.2,30.13,NW,319,6.0,6.0,90,0.00,,,0.00,Wunderground v.1.15,2013-02-06 04:48:00,
2013-02-05 22:53:00,24.4,21.9,30.13,NW,319,5.0,6.0,90,0.00,,,0.00,Wunderground v.1.15,2013-02-06 04:53:00,
2013-02-05 22:58:00,24.3,21.8,30.13,NW,318,7.0,7.0,90,0.00,,,0.00,Wunderground v.1.15,2013-02-06 04:58:00,
2013-02-05 23:00:00,24.2,21.7,30.13,NW,319,5.0,5.0,90,0.00,,,0.00,Wunderground v.1.15,2013-02-06 05:00:00,
2013-02-05 23:05:00,24.1,21.6,30.13,NW,320,5.0,6.0,90,0.00,,,0.00,Wunderground v.1.15,2013-02-06 05:05:00,
2013-02-05 23:10:00,23.9,21.4,30.13,NW,320,4.0,5.0,90,0.00,,,0.00,Wunderground v.1.15,2013-02-06 05:10:00,
2013-02-05 23:15:00,23.8,21.3,30.13,NW,320,4.0,4.0,90,0.00,,,0.00,Wunderground v.1.15,2013-02-06 05:15:00,
2013-02-05 23:20:00,23.7,21.2,30.13,NW,323,6.0,6.0,90,0.00,,,0.00,Wunderground v.1.15,2013-02-06 05:20:00,
2013-02-05 23:25:00,23.5,21.0,30.13,NW,323,5.0,5.0,90,0.00,,,0.00,Wunderground v.1.15,2013-02-06 05:25:00,
2013-02-05 23:30:00,23.3,20.8,30.13,NW,323,3.0,5.0,90,0.00,,,0.00,Wunderground v.1.15,2013-02-06 05:30:00,
2013-02-05 23:35:00,23.3,21.1,30.13,NW,323,3.0,4.0,91,0.00,,,0.00,Wunderground v.1.15,2013-02-06 05:35:00,
2013-02-05 23:42:00,23.3,20.8,30.13,NW,323,5.0,5.0,90,0.00,,,0.00,Wunderground v.1.15,2013-02-06 05:42:00,
2013-02-05 23:47:00,23.1,20.6,30.13,NW,323,4.0,5.0,90,0.00,,,0.00,Wunderground v.1.15,2013-02-06 05:47:00,
2013-02-05 23:53:00,23.0,20.5,30.14,NW,323,4.0,4.0,90,0.00,,,0.00,Wunderground v.1.15,2013-02-06 05:53:00,